Flag for Germany Weather past 2 weeks in Wesseling, North Rhine-Westphalia, Germany

Now
64 °F

Scattered clouds.


Feels Like: 64 °F
Forecast: 48 / 63 °F
Wind: 3 mph from Southwest

Location: Koeln / Bonn

Current Time: Sep 3, 2015 at 1:24:16 PM

Latest Report: Sep 3, 2015 at 1:00 PM


Visibility: 16 mi

Pressure: 29.95 "Hg

Humidity: 60%

Dew point: 50 °F

Location of WesselingLocation

Historic Weather in Wesseling — Graph

°F

Wesseling temperature yesterday

Maximum temperature yesterday: 67 °F (at 4:00 PM)
Minimum temperature yesterday: 51 °F (at 7:00 AM)
Average temperature yesterday: 58 °F

Past Weeks' High & Low Weather Summary

 TemperatureHumidityPressure
High92 °F (Aug 30, 5:00 PM)100% (Aug 29, 4:00 AM)30.27 "Hg (Aug 29, 4:00 AM)
Low48 °F (Sep 3, 8:00 AM)31% (Aug 31, 5:00 PM)29.58 "Hg (Aug 24, 3:00 PM)
Average67 °F71%29.98 "Hg
* Reported Aug 19 12:00 Noon — Sep 3 12:00 Noon, Wesseling, Weather by CustomWeather, © 2015

Note: Actual official high and low records may vary slightly from our data, if they occured in-between our weather recording intervals... More about our weather records

Advertising

Wesseling weather history for previous 24 hours

 ConditionsComfort  
Time TempWeatherWind HumidityBarometerVisibility
12:00 PM
Thu, Sep 3
62 °FScattered clouds.3 mph68%29.97 "Hg11 mi
11:00 AM58 °FScattered clouds.2 mph80%29.98 "Hg6 mi
10:00 AM56 °FScattered clouds.1 mph89%29.98 "Hg6 mi
9:00 AM54 °FFog.1 mph97%29.98 "Hg4 mi
8:00 AM48 °FFog.2 mph98%29.98 "Hg1 mi
7:00 AM50 °FFog.1 mph100%29.98 "Hg5 mi
5:00 AM53 °FOvercast.1 mph99%29.98 "Hg19 mi
4:00 AM54 °FOvercast.1 mph99%29.99 "Hg19 mi
3:00 AM54 °FOvercast.2 mph97%29.99 "Hg19 mi
2:00 AM55 °FSprinkles. Overcast.3 mph91%30.00 "Hg19 mi
1:00 AM55 °FOvercast.1 mph97%30.00 "Hg22 mi
11:00 PM
Wed, Sep 2
56 °FOvercast.1 mph95%30.01 "Hg25 mi
10:00 PM56 °FOvercast.1 mph90%30.02 "Hg25 mi
9:00 PM57 °FOvercast.2 mph84%30.01 "Hg19 mi
8:00 PM60 °FOvercast.2 mph76%30.00 "Hg28 mi
7:00 PM63 °FPartly sunny.3 mph69%29.99 "Hg22 mi
6:00 PM64 °FOvercast.6 mph65%29.99 "Hg31 mi
5:00 PM65 °FPartly sunny.2 mph61%29.99 "Hg31 mi
4:00 PM67 °FPartly sunny.2 mph61%30.00 "Hg31 mi
3:00 PM63 °FPartly sunny.2 mph72%30.02 "Hg37 mi
2:00 PM61 °FPartly sunny.1 mph79%30.03 "Hg37 mi
1:00 PM64 °FPartly sunny.1 mph63%30.03 "Hg17 mi
Weather by CustomWeather, © 2015

See weather overviewHow to use our weather pages